カタログに戻る

STARLINK-35349

運用中通信VLEO
NORAD 65835·PAYLOAD·🇺🇸 United States

打ち上げ Sep 29, 2025 から Vandenberg Space Force Base

Loading…

次のパス (今後24時間)

TLE

最新Source: CelesTrak SupGP

元期: Sep 14, 2026, 20:44 UTC

1 65835C 25221N   26257.86437500  .00018305  00000+0  54112-3 0  2573
2 65835  53.1576 287.8571 0001160  86.1169 221.9883 15.34364776    13

AllMySatでSTARLINK-35349をリアルタイム追跡

Download on the App Store